Tracking 19212 objects as of 16-Jul-2018
HD Live streaming from Space Station
objects crossing your sky now

FENGYUN 1C DEB

Track FENGYUN 1C DEB now!
10-day predictions


NORAD ID: 31302
Int'l Code: 1999-025BPL
Perigee: 833.2 km
Apogee: 885.4 km
Inclination: 99.4 °
Period: 102.0 minutes
Semi major axis: 7230 km
RCS: 0.011 m2 (small)
Launch date: May 10, 1999
Source: People's Republic of China (PRC)
Launch site: Taiyaun Space Center, China (TSC)

Note: This is SATELLITE DEBRIS
aabbcc
Your satellite tracking list
Your tracking list is empty




NASA's NSSDC Master Catalog

Two Line Element Set (TLE):
1 31302U 99025BPL 18196.09609036  .00000418  00000-0  25285-3 0  9990
2 31302  99.4214  51.8106 0036119  84.9914  68.6161 14.12119522580904
Source of the keplerian elements: AFSPC